Location: Ingoldesthorpe
(52.8667°N, 0.5167°E)
Time: 22:09:14
(UTC+00:00)

Cosmos 2278 - Pass Details

Date: 19 May 2025
Orbit: 839 x 850 km, 71.1° (Epoch: 12 June)

Event Time Altitude Azimuth Distance (km) Brightness Sun altitude
Rises 23:05:18 0° 327° (NNW) 3,407 8.2 -16.4°
Reaches altitude 10° 23:07:46 10° 326° (NW) 2,468 7.2 -16.4°
Maximum altitude 23:13:24 73° 243° (WSW) 882 3.7 -16.6°
Enters shadow 23:16:32 27° 164° (SSE) 1,558 4.5 -16.7°
